Aviation Digital Data Service (ADDS)

Output produced by METARs form (1302 UTC 21 February 2018)
found at http://www.aviationweather.gov/adds/metars/
 
WAAA 211300Z 08003KT 8000 FEW019 27/26 Q1009 NOSIG
TAF WAAA 201100Z 2012/2118 09004KT 8000 FEW020 
     BECMG 2101/2103 30010KT 9999 
     BECMG 2111/2113 11005KT 8000
       
WABB 211200Z 00000KT 9999 FEW018 25/24 Q1008 NOSIG
TAF WABB 201100Z 2012/2118 00000KT 9999 SCT018 
     TEMPO 2012/2015 7000 RA FEW017CB
       
WADD 211230Z 05007KT 340V100 6000 VCSH FEW016CB BKN017 27/24 Q1007 RETS NOSIG RMK CB IN APCH CLIMB OUT
WADL 211300Z 11003KT 060V140 6000 TS FEW015CB BKN016 26/24 Q1009 TEMPO TL1400 TS RMK CB TO E
WAHS 211230Z 32007KT 6000 TS FEW013CB SCT014 29/24 Q1007 NOSIG
WALL 211230Z 33005KT 250V360 9000 FEW020 SCT100 25/24 Q1007
TAF WALL 201100Z 2012/2118 05006KT 9000 FEW018CB SCT018 
     BECMG 2014/2015 32006KT 
     TEMPO 2016/2020 4000 -TSRA FEW016CB BKN016 
     BECMG 2100/2102 9999 FEW020
       
WAMM 211230Z 09003KT 9999 SCT021 26/24 Q1009 NOSIG
TAF WAMM 201100Z 2012/2118 32003KT 9999 SCT022 
     TEMPO 2012/2016 5000 -RA FEW017CB SCT018 
     BECMG 2023/2101 33008KT SCT022
       
WAOO 211230Z AUTO 12003KT 9000 FEW200 FEW220 27/25 Q1007
WAQQ 211200Z 00000KT 8000 FEW015 26/25 Q1008
WATT 211230Z 00000KT 8000 SCT017 25/24 Q1008 NOSIG
WIBB 211230Z 00000KT 9000 FEW015 27/24 Q1005
WIDD 211230Z 03011KT 9999 FEW014 27/23 Q1009
WIII 211230Z 32003KT 5000 BKN020 27/24 Q1008 RERA NOSIG
TAF WIII 201100Z 2012/2118 25005KT 8000 SCT020 
     TEMPO 2017/2021 5000 HZ 
     TEMPO 2021/2100 5000 SHRA BKN018 
     BECMG 2101/2103 NSW
       
WIMM 211230Z 20009KT 7000 TS FEW016CB BKN017 24/23 Q1007 RERA
WIOO 211230Z 29004KT 4000 FU SCT012 27/24 Q1007 NOSIG
WIPP 211230Z 02008KT 9999 SCT012 27/25 Q1007 NOSIG
WAAA 211300Z 08003KT 8000 FEW019 27/26 Q1009 NOSIG
TAF WAAA 201100Z 2012/2118 09004KT 8000 FEW020 
     BECMG 2101/2103 30010KT 9999 
     BECMG 2111/2113 11005KT 8000
       
WABB 211200Z 00000KT 9999 FEW018 25/24 Q1008 NOSIG
TAF WABB 201100Z 2012/2118 00000KT 9999 SCT018 
     TEMPO 2012/2015 7000 RA FEW017CB
       
WADD 211230Z 05007KT 340V100 6000 VCSH FEW016CB BKN017 27/24 Q1007 RETS NOSIG RMK CB IN APCH CLIMB OUT
WADL 211300Z 11003KT 060V140 6000 TS FEW015CB BKN016 26/24 Q1009 TEMPO TL1400 TS RMK CB TO E
WAHS 211230Z 32007KT 6000 TS FEW013CB SCT014 29/24 Q1007 NOSIG
WALL 211230Z 33005KT 250V360 9000 FEW020 SCT100 25/24 Q1007
TAF WALL 201100Z 2012/2118 05006KT 9000 FEW018CB SCT018 
     BECMG 2014/2015 32006KT 
     TEMPO 2016/2020 4000 -TSRA FEW016CB BKN016 
     BECMG 2100/2102 9999 FEW020
       
WAMM 211230Z 09003KT 9999 SCT021 26/24 Q1009 NOSIG
TAF WAMM 201100Z 2012/2118 32003KT 9999 SCT022 
     TEMPO 2012/2016 5000 -RA FEW017CB SCT018 
     BECMG 2023/2101 33008KT SCT022
       
WAOO 211230Z AUTO 12003KT 9000 FEW200 FEW220 27/25 Q1007
WAQQ 211200Z 00000KT 8000 FEW015 26/25 Q1008
WATT 211230Z 00000KT 8000 SCT017 25/24 Q1008 NOSIG
WABB 211200Z 00000KT 9999 FEW018 25/24 Q1008 NOSIG
TAF WABB 201100Z 2012/2118 00000KT 9999 SCT018 
     TEMPO 2012/2015 7000 RA FEW017CB
       
WAAA 211300Z 08003KT 8000 FEW019 27/26 Q1009 NOSIG
TAF WAAA 201100Z 2012/2118 09004KT 8000 FEW020 
     BECMG 2101/2103 30010KT 9999 
     BECMG 2111/2113 11005KT 8000
       
WAAA 211300Z 08003KT 8000 FEW019 27/26 Q1009 NOSIG
TAF WAAA 201100Z 2012/2118 09004KT 8000 FEW020 
     BECMG 2101/2103 30010KT 9999 
     BECMG 2111/2113 11005KT 8000
       
WABB 211200Z 00000KT 9999 FEW018 25/24 Q1008 NOSIG
TAF WABB 201100Z 2012/2118 00000KT 9999 SCT018 
     TEMPO 2012/2015 7000 RA FEW017CB
       
WADD 211230Z 05007KT 340V100 6000 VCSH FEW016CB BKN017 27/24 Q1007 RETS NOSIG RMK CB IN APCH CLIMB OUT
WADL 211300Z 11003KT 060V140 6000 TS FEW015CB BKN016 26/24 Q1009 TEMPO TL1400 TS RMK CB TO E
WAHS 211230Z 32007KT 6000 TS FEW013CB SCT014 29/24 Q1007 NOSIG
WALL 211230Z 33005KT 250V360 9000 FEW020 SCT100 25/24 Q1007
TAF WALL 201100Z 2012/2118 05006KT 9000 FEW018CB SCT018 
     BECMG 2014/2015 32006KT 
     TEMPO 2016/2020 4000 -TSRA FEW016CB BKN016 
     BECMG 2100/2102 9999 FEW020
       
WAMM 211230Z 09003KT 9999 SCT021 26/24 Q1009 NOSIG
TAF WAMM 201100Z 2012/2118 32003KT 9999 SCT022 
     TEMPO 2012/2016 5000 -RA FEW017CB SCT018 
     BECMG 2023/2101 33008KT SCT022
       
WAOO 211230Z AUTO 12003KT 9000 FEW200 FEW220 27/25 Q1007
WAQQ 211200Z 00000KT 8000 FEW015 26/25 Q1008
WATT 211230Z 00000KT 8000 SCT017 25/24 Q1008 NOSIG
WIBB 211230Z 00000KT 9000 FEW015 27/24 Q1005
WIDD 211230Z 03011KT 9999 FEW014 27/23 Q1009
WIII 211230Z 32003KT 5000 BKN020 27/24 Q1008 RERA NOSIG
TAF WIII 201100Z 2012/2118 25005KT 8000 SCT020 
     TEMPO 2017/2021 5000 HZ 
     TEMPO 2021/2100 5000 SHRA BKN018 
     BECMG 2101/2103 NSW
       
WIMM 211230Z 20009KT 7000 TS FEW016CB BKN017 24/23 Q1007 RERA
WIOO 211230Z 29004KT 4000 FU SCT012 27/24 Q1007 NOSIG
WIPP 211230Z 02008KT 9999 SCT012 27/25 Q1007 NOSIG
WIMM 211230Z 20009KT 7000 TS FEW016CB BKN017 24/23 Q1007 RERA
WIBB 211230Z 00000KT 9000 FEW015 27/24 Q1005
WIDD 211230Z 03011KT 9999 FEW014 27/23 Q1009
WIII 211230Z 32003KT 5000 BKN020 27/24 Q1008 RERA NOSIG
TAF WIII 201100Z 2012/2118 25005KT 8000 SCT020 
     TEMPO 2017/2021 5000 HZ 
     TEMPO 2021/2100 5000 SHRA BKN018 
     BECMG 2101/2103 NSW
       
WIMM 211230Z 20009KT 7000 TS FEW016CB BKN017 24/23 Q1007 RERA
WIOO 211230Z 29004KT 4000 FU SCT012 27/24 Q1007 NOSIG
WIPP 211230Z 02008KT 9999 SCT012 27/25 Q1007 NOSIG
WAMM 211230Z 09003KT 9999 SCT021 26/24 Q1009 NOSIG
TAF WAMM 201100Z 2012/2118 32003KT 9999 SCT022 
     TEMPO 2012/2016 5000 -RA FEW017CB SCT018 
     BECMG 2023/2101 33008KT SCT022
       
WIII 211230Z 32003KT 5000 BKN020 27/24 Q1008 RERA NOSIG
TAF WIII 201100Z 2012/2118 25005KT 8000 SCT020 
     TEMPO 2017/2021 5000 HZ 
     TEMPO 2021/2100 5000 SHRA BKN018 
     BECMG 2101/2103 NSW
       
WIPP 211230Z 02008KT 9999 SCT012 27/25 Q1007 NOSIG
WIBB 211230Z 00000KT 9000 FEW015 27/24 Q1005
WIOO 211230Z 29004KT 4000 FU SCT012 27/24 Q1007 NOSIG